Regional Weather Roundup
Issued by NWS Burlington, VT

Home | Current Version | Previous Version | Text Only | Print | Product List | Glossary On
Versions: 1 2 3 4 5 6 7 8 9 10 11 12 13 14 15 16 17 18 19 20 21 22 23 24 25 26 27 28 29 30 31 32 33 34 35 36 37 38 39 40 41 42 43 44 45 46 47 48 49 50
767
ASUS41 KBTV 261730
RWRBTV
VERMONT REGIONAL WEATHER ROUNDUP
NATIONAL WEATHER SERVICE BURLINGTON VT
100 PM EDT SAT MAY 26 2018

NOTE: "FAIR" INDICATES FEW OR NO CLOUDS BELOW 12,000 FEET WITH NO
SIGNIFICANT WEATHER AND/OR OBSTRUCTIONS TO VISIBILITY.

* THESE REPORTS ARE NOT UNDER NWS QUALITY CONTROL AND/OR DO NOT
  REPORT WEATHER SUCH AS PRECIPITATION AND FOG.

VTZ001>019-261800-
_____VERMONT_____


CITY           SKY/WX    TMP DP  RH WIND       PRES   REMARKS
BURLINGTON     CLOUDY    70  60  70 N7        29.80R
MONTPELIER     PTSUNNY   71  61  70 NW8       29.85R
MORRISVILLE    CLOUDY    66  63  90 N9        29.83R
ST. JOHNSBURY*   N/A     68  65  90 MISG      29.79R
LYNDONVILLE*   LGT RAIN  64  61  90 SW5       29.84R
MIDDLEBURY*    PTSUNNY   77  57  50 NW5       29.79R
RUTLAND*       FAIR      78  55  44 SW8       29.78S
SPRINGFIELD    FAIR      80  60  50 E5        29.75F
HIGHGATE*      LGT RAIN  62  62  99 CALM      29.83R
NEWPORT*       DRIZZLE   62  62  99 CALM      29.83S
BENNINGTON     FAIR      82  58  43 SW7       29.79F
ISLAND POND*     N/A     63 N/A N/A NW3         N/A
GALLUP MILLS*    N/A     63 N/A N/A MISG        N/A
UNION VILLAGE*   N/A     81 N/A N/A MISG        N/A
MT. MANSFIELD*   N/A     57 N/A N/A NW14        N/A

_____LAKE CHAMPLAIN_____


CITY           SKY/WX    TMP DP  RH WIND       PRES   REMARKS
BURTON ISLAND*   N/A     63  63 100 MISG        N/A
COLCHESTER RF*   N/A     61  59  94 NE9         N/A
DIAMOND ISL*     N/A     70  59  68 N17G24      N/A

$$

NYZ007-026>031-035-052-083-087-261800-
_____NORTHERN NEW YORK_____


CITY           SKY/WX    TMP DP  RH WIND       PRES   REMARKS
PLATTSBURGH    LGT RAIN  63  60  90 NE6       29.81R
SARANAC LAKE   CLOUDY    70  60  70 CALM      29.81R
MASSENA        CLOUDY    66  65  96 NE5       29.83R
OGDENSBURG*    PTSUNNY   73  65  77 NE5       29.81S
POTSDAM*       CLOUDY    66  63  88 NE3       29.82R
STARK FALLS*     N/A     72 N/A N/A NW8         N/A
WATERTOWN      FAIR      73  57  57 W7        29.81R
FT DRUM        FAIR      77  59  53 NW6       29.81R
ALBANY         PTSUNNY   87  57  35 W8        29.78F
GLENS FALLS    FAIR      79  59  50 S8        29.76F

$$
NHZ002-005-011-261800-
_____NEW HAMPSHIRE_____


CITY           SKY/WX    TMP DP  RH WIND       PRES   REMARKS
LEBANON        FAIR      81  58  45 SE5       29.75S
KEENE          FAIR      84  57  39 SW13      29.77F
MT WASHINGTON  FOG       48  48 100 NW31        N/A  VSB 1/16
PLYMOUTH       FAIR      79  59  49 W7        29.76S
WHITEFIELD     LGT RAIN  67  63  87 CALM      29.81R FOG

$$

_____REGIONAL QUEBEC LOCATIONS_____


CITY           SKY/WX    TMP DP  RH WIND       PRES   REMARKS
MONTREAL       PTSUNNY   66  54  63 E8        29.82R
QUEBEC CITY    PTSUNNY   61  45  55 E8        29.84S
SHERBROOKE     PTSUNNY   70  55  60 N8        29.79R

_____REGIONAL ONTARIO LOCATIONS_____


CITY           SKY/WX    TMP DP  RH WIND       PRES   REMARKS
OTTAWA         CLOUDY    70  64  83 SE6       29.82R

______KEY______
VSB  - VISIBILITY IN MILES
WCI  - WIND CHILL INDEX
HX   - HEAT INDEX
$$
NNNN




USA.gov is the U.S. government's official web portal to all federal, state and local government web resources and services.